EW1587 Weather Reports


time (UTC)temp
C
wind
direction
speed
KPH
gust
KPH
rain 1hr
cm
rain 24hr
cm
rain mn
cm
humidity
%
barometer
mb
20260831225521 28 239 0.0 11.3 0.00 0.00 0.00 53 1010.5
20260831225020 28 290 3.2 11.3 0.00 0.00 0.00 52 1010.5
20260831224519 29 269 4.8 11.3 0.00 0.00 0.00 52 1010.4
20260831224019 29 256 1.6 11.3 0.00 0.00 0.00 51 1010.4
20260831223520 29 275 1.6 11.3 0.00 0.00 0.00 50 1010.4
20260831223020 29 297 6.4 11.3 0.00 0.00 0.00 46 1010.4
20260831222520 30 295 3.2 12.9 0.00 0.00 0.00 48 1010.2
20260831222018 30 261 6.4 12.9 0.00 0.00 0.00 46 1010.3
20260831221518 30 298 3.2 11.3 0.00 0.00 0.00 48 1010.3
20260831221018 30 290 6.4 11.3 0.00 0.00 0.00 44 1010.3
20260831220522 31 286 3.2 8.0 0.00 0.00 0.00 45 1010.2
20260831220017 31 252 1.6 9.7 0.00 0.00 0.00 45 1010.3
20260831215517 30 276 0.0 9.7 0.00 0.00 0.00 47 1010.3
20260831215017 30 281 3.2 9.7 0.00 0.00 0.00 46 1010.3
20260831214515 30 294 1.6 12.9 0.00 0.00 0.00 46 1010.3
20260831214017 30 287 6.4 12.9 0.00 0.00 0.00 45 1010.4
20260831213516 30 290 1.6 11.3 0.00 0.00 0.00 47 1010.2
20260831213014 30 290 3.2 11.3 0.00 0.00 0.00 46 1010.1
20260831212515 31 298 4.8 11.3 0.00 0.00 0.00 46 1010.2
20260831212013 31 274 0.0 11.3 0.00 0.00 0.00 47 1010.2
20260831211524 31 313 1.6 6.4 0.00 0.00 0.00 45 1010.2
20260831211011 31 77 0.0 4.8 0.00 0.00 0.00 39 1010.3
20260831210510 31 271 1.6 8.0 0.00 0.00 0.00 40 1010.3
20260831210010 31 242 0.0 8.0 0.00 0.00 0.00 39 1010.2
20260831205510 31 298 1.6 8.0 0.00 0.00 0.00 40 1010.2
20260831205009 31 290 1.6 9.7 0.00 0.00 0.00 38 1010.2
20260831204511 31 297 3.2 9.7 0.00 0.00 0.00 38 1010.2
20260831204006 31 349 0.0 6.4 0.00 0.00 0.00 40 1010.3
20260831203507 31 307 3.2 6.4 0.00 0.00 0.00 40 1010.3
20260831203015 31 18 0.0 12.9 0.00 0.00 0.00 44 1010.3
20260831202504 30 320 1.6 12.9 0.00 0.00 0.00 42 1010.3
20260831202003 30 346 0.0 8.0 0.00 0.00 0.00 43 1010.3
20260831201504 30 47 1.6 8.0 0.00 0.00 0.00 44 1010.3
20260831201003 30 1 0.0 8.0 0.00 0.00 0.00 45 1010.4
20260831200502 30 315 4.8 8.0 0.00 0.00 0.00 45 1010.4
20260831200002 30 60 0.0 8.0 0.00 0.00 0.00 43 1010.3
20260831195504 30 69 1.6 8.0 0.00 0.00 0.00 42 1010.2
20260831195001 30 313 0.0 8.0 0.00 0.00 0.00 44 1010.1
20260831194623 30 65 3.2 8.0 0.00 0.00 0.00 41 1010.0
20260831194059 30 304 1.6 8.0 0.00 0.00 0.00 41 1010.1
20260831193600 30 16 0.0 8.0 0.00 0.00 0.00 43 1010.1
20260831193057 30 31 0.0 4.8 0.00 0.00 0.00 42 1010.1
20260831192559 29 6 0.0 11.3 0.00 0.00 0.00 44 1010.0
20260831192055 29 79 4.8 11.3 0.00 0.00 0.00 44 1009.9
20260831191555 29 54 0.0 12.9 0.00 0.00 0.00 45 1010.0
20260831191056 29 62 8.0 14.5 0.00 0.00 0.00 45 1010.0
20260831190554 29 285 3.2 12.9 0.00 0.00 0.00 45 1010.1
20260831190058 29 89 1.6 8.0 0.00 0.00 0.00 44 1010.1
20260831185553 29 14 1.6 8.0 0.00 0.00 0.00 47 1010.1
20260831185052 29 51 1.6 8.0 0.00 0.00 0.00 51 1010.2
20260831184552 29 320 1.6 8.0 0.00 0.00 0.00 54 1010.2
20260831184051 28 324 1.6 8.0 0.00 0.00 0.00 56 1010.0
20260831183550 28 25 1.6 8.0 0.00 0.00 0.00 53 1009.9
20260831183050 29 29 0.0 8.0 0.00 0.00 0.00 57 1010.0
20260831182553 30 71 0.0 9.7 0.00 0.00 0.00 53 1009.9
20260831182053 29 58 0.0 6.4 0.00 0.00 0.00 58 1009.9
20260831181548 28 341 0.0 8.0 0.00 0.00 0.00 55 1009.9
20260831181048 28 346 1.6 9.7 0.00 0.00 0.00 57 1010.0
20260831180548 28 336 1.6 9.7 0.00 0.00 0.00 60 1010.0
20260831180048 28 77 3.2 14.5 0.00 0.00 0.00 57 1010.0
20260831175548 29 67 4.8 14.5 0.00 0.00 0.00 56 1010.0
20260831175052 30 72 0.0 6.4 0.00 0.00 0.00 54 1010.0
20260831174547 30 328 0.0 6.4 0.00 0.00 0.00 55 1010.1
20260831174049 30 311 0.0 6.4 0.00 0.00 0.00 55 1010.1
20260831173548 29 311 0.0 8.0 0.00 0.00 0.00 57 1010.0
20260831173045 29 123 1.6 8.0 0.00 0.00 0.00 56 1010.1
20260831172543 28 30 0.0 8.0 0.00 0.00 0.00 62 1010.2
20260831172041 28 349 0.0 9.7 0.00 0.00 0.00 62 1010.3
20260831171540 28 57 0.0 11.3 0.00 0.00 0.00 63 1010.3
20260831171039 28 276 0.0 6.4 0.00 0.00 0.00 69 1010.3
20260831170538 28 63 0.0 6.4 0.00 0.00 0.00 69 1010.4
20260831170036 27 323 0.0 6.4 0.00 0.00 0.00 71 1010.3
20260831165535 27 321 0.0 8.0 0.00 0.00 0.00 74 1010.2
20260831165033 27 18 1.6 8.0 0.00 0.00 0.00 74 1010.3
20260831164531 26 94 0.0 4.8 0.00 0.00 0.00 76 1010.3
20260831164031 26 345 1.6 4.8 0.00 0.00 0.00 75 1010.3
20260831163530 26 46 0.0 8.0 0.00 0.00 0.00 77 1010.3
20260831163032 26 289 1.6 8.0 0.00 0.00 0.00 77 1010.3
20260831162529 26 321 0.0 3.2 0.00 0.00 0.00 80 1010.3
20260831162028 26 286 0.0 6.4 0.00 0.00 0.00 79 1010.3
20260831161532 26 328 0.0 6.4 0.00 0.00 0.00 79 1010.2
20260831161026 26 298 1.6 11.3 0.00 0.00 0.00 78 1010.2
20260831160526 26 326 0.0 11.3 0.00 0.00 0.00 78 1010.1
20260831160025 26 25 1.6 8.0 0.00 0.00 0.00 80 1010.1
20260831155524 25 277 0.0 4.8 0.00 0.00 0.00 81 1010.0
20260831155023 25 319 0.0 8.0 0.00 0.00 0.00 82 1010.0
20260831154522 25 354 0.0 8.0 0.00 0.00 0.00 83 1009.9
20260831154025 25 77 1.6 8.0 0.00 0.00 0.00 84 1009.9
20260831153520 25 322 0.0 4.8 0.00 0.00 0.00 85 1009.8
20260831153018 25 74 0.0 6.4 0.00 0.00 0.00 86 1009.8
20260831152518 25 300 0.0 6.4 0.00 0.00 0.00 86 1009.8
20260831152017 25 92 0.0 4.8 0.00 0.00 0.00 87 1009.7
20260831151517 24 1 0.0 4.8 0.00 0.00 0.00 88 1009.8
20260831151014 24 357 0.0 4.8 0.00 0.00 0.00 89 1009.7
20260831150513 24 62 0.0 4.8 0.00 0.00 0.00 88 1009.5
20260831150014 24 117 0.0 8.0 0.00 0.00 0.00 89 1009.4
20260831145510 24 335 0.0 9.7 0.00 0.00 0.00 88 1009.4
20260831145009 23 323 1.6 9.7 0.00 0.00 0.00 89 1009.3
20260831144509 23 44 0.0 8.0 0.00 0.00 0.00 90 1009.2
20260831144009 23 332 1.6 8.0 0.00 0.00 0.00 90 1009.2
20260831143509 23 343 0.0 11.3 0.00 0.00 0.00 92 1009.0
20260831143008 23 282 0.0 11.3 0.00 0.00 0.00 91 1009.0
20260831142507 23 278 0.0 8.0 0.00 0.00 0.00 92 1008.8
20260831142006 23 295 0.0 6.4 0.00 0.00 0.00 93 1008.8
20260831141504 23 307 0.0 9.7 0.00 0.00 0.00 94 1008.8
20260831141004 23 53 0.0 9.7 0.00 0.00 0.00 95 1008.8
20260831140505 23 278 0.0 8.0 0.00 0.00 0.00 96 1008.7
20260831140002 23 13 0.0 9.7 0.00 0.00 0.00 98 1008.7
20260831135600 23 259 0.0 9.7 0.00 0.00 0.00 98 1008.7
20260831135100 22 346 0.0 4.8 0.00 0.00 0.00 100 1008.6
20260831134559 22 301 0.0 8.0 0.00 0.00 0.00 100 1008.6
20260831134057 22 289 1.6 8.0 0.00 0.00 0.00 100 1008.5
20260831133556 22 323 1.6 4.8 0.00 0.00 0.00 100 1008.5
20260831133055 22 278 0.0 1.6 0.00 0.00 0.00 100 1008.4
20260831132554 21 311 0.0 1.6 0.00 0.00 0.00 100 1008.3
20260831132053 21 312 0.0 0.0 0.00 0.00 0.00 100 1008.1
20260831131556 21 292 0.0 1.6 0.00 0.00 0.00 100 1008.1
20260831131052 21 293 0.0 1.6 0.00 0.00 0.00 100 1008.1
20260831130552 21 290 0.0 1.6 0.00 0.00 0.00 100 1008.1
20260831130105 20 303 0.0 1.6 0.00 0.00 0.00 100 1008.0
20260831125552 20 298 0.0 1.6 0.00 0.00 0.00 100 1008.1
20260831125052 20 284 0.0 1.6 0.00 0.00 0.00 100 1008.1
20260831124551 20 240 0.0 1.6 0.00 0.00 0.00 100 1007.9
20260831124049 20 250 0.0 1.6 0.00 0.00 0.00 100 1007.9
20260831123549 20 284 0.0 3.2 0.00 0.00 0.00 100 1007.7
20260831123048 20 289 0.0 3.2 0.00 0.00 0.00 100 1007.6
20260831122547 19 294 0.0 3.2 0.00 0.00 0.00 100 1007.5
20260831122048 19 297 0.0 1.6 0.00 0.00 0.00 100 1007.5
20260831121545 19 243 0.0 1.6 0.00 0.00 0.00 100 1007.3
20260831121045 19 243 0.0 1.6 0.00 0.00 0.00 100 1007.3
20260831120544 19 248 0.0 0.0 0.00 0.00 0.00 100 1007.1
20260831120043 19 288 0.0 1.6 0.00 0.00 0.00 100 1006.9
20260831115542 20 288 0.0 1.6 0.00 0.00 0.00 100 1006.8
20260831115041 19 295 0.0 0.0 0.00 0.00 0.00 100 1006.7
20260831114541 20 295 0.0 0.0 0.00 0.00 0.00 100 1006.6
20260831114040 19 245 0.0 0.0 0.00 0.00 0.00 100 1006.4
20260831113540 20 245 0.0 0.0 0.00 0.00 0.00 100 1006.3
20260831113040 20 244 0.0 0.0 0.00 0.00 0.00 100 1006.4
20260831112539 20 245 0.0 1.6 0.00 0.00 0.00 100 1006.4
20260831112039 20 243 0.0 1.6 0.00 0.00 0.00 100 1006.4
20260831111537 20 293 0.0 0.0 0.00 0.00 0.00 100 1006.4
20260831111037 20 293 0.0 1.6 0.00 0.00 0.00 100 1006.4
20260831110537 20 276 0.0 1.6 0.00 0.00 0.00 100 1006.5
20260831110040 20 280 0.0 3.2 0.00 0.00 0.00 100 1006.5
20260831105539 20 290 0.0 1.6 0.00 0.00 0.00 100 1006.6
20260831105047 20 274 0.0 3.2 0.00 0.00 0.00 100 1006.5
20260831104539 20 260 0.0 3.2 0.00 0.00 0.00 100 1006.4
20260831104035 20 280 0.0 3.2 0.00 0.00 0.00 100 1006.4
20260831103534 20 278 0.0 3.2 0.00 0.00 0.00 100 1006.4
20260831103035 20 273 0.0 1.6 0.00 0.00 0.00 100 1006.4
20260831102533 20 243 0.0 3.2 0.00 0.00 0.00 100 1006.4
20260831102033 20 301 0.0 3.2 0.00 0.00 0.00 100 1006.4
20260831101538 20 246 0.0 3.2 0.00 0.00 0.00 100 1006.2
20260831101034 20 290 0.0 4.8 0.00 0.00 0.00 100 1006.3
20260831100531 20 277 0.0 4.8 0.00 0.00 0.00 100 1006.3
20260831100031 20 278 0.0 4.8 0.00 0.00 0.00 100 1006.1
20260831095631 20 280 0.0 4.8 0.00 0.00 0.00 100 1006.1
20260831095029 20 269 0.0 3.2 0.00 0.00 0.00 100 1006.1
20260831094528 20 264 0.0 4.8 0.00 0.00 0.00 100 1006.0
20260831094029 20 269 0.0 4.8 0.00 0.00 0.00 100 1005.9
20260831093529 20 252 0.0 4.8 0.00 0.00 0.00 100 1005.8
20260831093028 20 250 0.0 4.8 0.00 0.00 0.00 100 1005.9
20260831092528 20 284 0.0 3.2 0.00 0.00 0.00 100 1005.9
20260831092026 20 249 0.0 3.2 0.00 0.00 0.00 100 1005.8
20260831091526 20 243 0.0 3.2 0.00 0.00 0.00 100 1005.8
20260831091025 20 284 0.0 4.8 0.00 0.00 0.00 100 1005.9
20260831090526 21 260 0.0 4.8 0.00 0.00 0.00 100 1005.9
20260831090031 21 306 0.0 4.8 0.00 0.00 0.00 99 1005.8
20260831085525 21 264 0.0 4.8 0.00 0.00 0.00 99 1005.9
20260831085023 21 273 0.0 3.2 0.00 0.00 0.00 99 1005.9
20260831084523 21 277 0.0 3.2 0.00 0.00 0.00 99 1006.1
20260831084022 21 261 0.0 3.2 0.00 0.00 0.00 99 1006.0
20260831083522 21 290 0.0 3.2 0.00 0.00 0.00 99 1005.9
20260831083035 21 273 0.0 4.8 0.00 0.00 0.00 99 1005.8
20260831082524 21 271 0.0 4.8 0.00 0.00 0.00 99 1005.8
20260831082024 21 273 0.0 3.2 0.00 0.00 0.00 99 1005.7
20260831081521 21 298 0.0 3.2 0.00 0.00 0.00 99 1005.6
20260831081024 21 294 1.6 6.4 0.00 0.00 0.00 99 1005.6
20260831080520 21 253 1.6 8.0 0.00 0.00 0.00 99 1005.5
20260831080019 21 272 0.0 8.0 0.00 0.00 0.00 98 1005.4
20260831075519 21 243 1.6 6.4 0.00 0.00 0.00 98 1005.6
20260831075018 21 271 1.6 4.8 0.00 0.00 0.00 98 1005.6
20260831074518 21 240 0.0 6.4 0.00 0.00 0.00 98 1005.7
20260831074018 21 278 1.6 4.8 0.00 0.00 0.00 98 1005.8
20260831073517 21 290 1.6 8.0 0.00 0.00 0.00 98 1005.7
20260831073017 21 257 3.2 11.3 0.00 0.00 0.00 98 1005.7
20260831072517 21 253 4.8 11.3 0.00 0.00 0.00 98 1005.6
20260831072015 21 259 3.2 8.0 0.00 0.00 0.00 98 1005.6
20260831071515 21 247 1.6 6.4 0.00 0.00 0.00 98 1005.7
20260831071014 21 238 3.2 8.0 0.00 0.00 0.00 98 1005.7
20260831070516 21 236 3.2 8.0 0.00 0.00 0.00 97 1005.6
20260831070023 21 234 0.0 8.0 0.00 0.00 0.00 97 1005.6
20260831065513 21 311 3.2 8.0 0.00 0.00 0.00 97 1005.7
20260831065012 21 255 1.6 8.0 0.00 0.00 0.00 97 1005.7
20260831064511 21 236 3.2 8.0 0.00 0.00 0.00 97 1005.9
20260831064010 21 231 0.0 8.0 0.00 0.00 0.00 97 1005.9
20260831063510 21 200 1.6 11.3 0.00 0.00 0.00 96 1005.9
20260831063010 21 292 3.2 11.3 0.00 0.00 0.00 96 1005.7
20260831062512 21 259 1.6 19.3 0.00 0.00 0.00 96 1005.8
20260831062011 22 280 4.8 19.3 0.00 0.00 0.00 96 1005.9
20260831061508 22 189 1.6 12.9 0.00 0.00 0.00 96 1005.9
20260831061008 22 209 3.2 14.5 0.00 0.00 0.00 95 1006.0
20260831060506 22 246 4.8 14.5 0.00 0.00 0.00 95 1006.1
20260831060006 22 253 3.2 12.9 0.00 0.00 0.00 95 1006.1
20260831055506 22 262 4.8 11.3 0.00 0.00 0.00 95 1006.1
20260831055005 22 166 1.6 11.3 0.00 0.00 0.00 95 1006.1
20260831054505 22 166 3.2 11.3 0.00 0.00 0.00 94 1006.1
20260831054004 22 245 4.8 12.9 0.00 0.00 0.00 94 1006.1
20260831053503 22 174 4.8 12.9 0.00 0.00 0.00 94 1006.1
20260831053003 22 252 4.8 11.3 0.00 0.00 0.00 94 1006.2
20260831052502 22 253 3.2 11.3 0.00 0.00 0.00 93 1006.2
20260831052002 22 238 1.6 11.3 0.00 0.00 0.00 93 1006.3
20260831051601 22 218 3.2 11.3 0.00 0.00 0.00 93 1006.5
20260831051159 22 295 3.2 9.7 0.00 0.00 0.00 93 1006.5
20260831050558 22 238 1.6 11.3 0.00 0.00 0.00 92 1006.5
20260831050508 22 255 1.6 11.3 0.00 0.00 0.00 92 1006.5
20260831050122 22 270 1.6 11.3 0.00 0.00 0.00 92 1006.6
20260831045557 22 240 1.6 14.5 0.00 0.00 0.00 92 1006.7
20260831045058 22 243 3.2 14.5 0.00 0.00 0.00 92 1006.8
20260831044604 22 210 4.8 9.7 0.00 0.00 0.00 92 1006.9
20260831044056 22 224 1.6 11.3 0.00 0.00 0.00 91 1007.1
20260831043556 22 176 3.2 11.3 0.00 0.00 0.00 91 1007.2
20260831043056 22 190 3.2 11.3 0.00 0.00 0.00 91 1007.2
20260831042555 23 298 1.6 9.7 0.00 0.00 0.00 91 1007.3
20260831032049 23 182 4.8 16.1 0.00 0.00 0.00 88 1007.0
20260831031549 23 165 4.8 14.5 0.00 0.00 0.00 88 1007.0
20260831025043 24 132 3.2 12.9 0.00 0.00 0.00 87 1006.8
20260831024538 24 214 4.8 14.5 0.00 0.00 0.00 86 1006.7
20260831024030 24 156 4.8 14.5 0.00 0.00 0.00 86 1006.6
20260831023530 24 250 1.6 12.9 0.00 0.00 0.00 86 1006.6
20260831023032 24 127 3.2 12.9 0.00 0.00 0.00 86 1006.6
20260831022529 24 231 1.6 8.0 0.00 0.00 0.00 85 1006.6
20260831022029 25 165 3.2 11.3 0.00 0.00 0.00 86 1006.7
20260831021538 25 180 3.2 11.3 0.00 0.00 0.00 86 1006.6
20260831021029 25 153 1.6 9.7 0.00 0.00 0.00 86 1006.8
20260831020533 25 228 3.2 9.7 0.00 0.00 0.00 86 1006.8
20260831020032 25 152 1.6 9.7 0.00 0.00 0.00 87 1006.7
20260831015532 25 183 1.6 9.7 0.00 0.00 0.00 87 1006.8
20260831015028 25 236 0.0 9.7 0.00 0.00 0.00 87 1006.7
20260831014528 25 143 1.6 9.7 0.00 0.00 0.00 87 1006.7
20260831014030 25 214 0.0 6.4 0.00 0.00 0.00 86 1006.7
20260831013528 25 166 0.0 6.4 0.00 0.00 0.00 86 1006.6
20260831013028 25 109 0.0 6.4 0.00 0.00 0.00 85 1006.6
20260831012528 25 194 0.0 4.8 0.00 0.00 0.00 85 1006.6
20260831012027 25 95 0.0 4.8 0.00 0.00 0.00 85 1006.5
20260831011542 26 90 0.0 4.8 0.00 0.00 0.00 84 1006.4
20260831011027 26 100 0.0 1.6 0.00 0.00 0.00 83 1006.4
20260831010527 26 82 0.0 4.8 0.00 0.00 0.00 83 1006.5
20260831010029 26 85 0.0 6.4 0.00 0.00 0.00 83 1006.4
20260831005527 26 72 0.0 6.4 0.00 0.00 0.00 82 1006.3
20260831005027 26 86 1.6 6.4 0.00 0.00 0.00 82 1006.3
20260831004526 26 103 1.6 8.0 0.00 0.00 0.00 82 1006.3
20260831004026 26 100 1.6 8.0 0.00 0.00 0.00 81 1006.4
20260831001020 27 98 3.2 8.0 0.00 0.00 0.00 78 1006.4
20260831000519 27 83 3.2 11.3 0.00 0.00 0.00 78 1006.4
20260831000019 27 94 3.2 11.3 0.00 0.00 0.00 77 1006.3
20260830235518 27 93 4.8 11.3 0.00 0.00 0.00 77 1006.3
20260830235018 27 99 1.6 9.7 0.00 0.00 0.00 77 1006.3
20260830234518 27 106 3.2 9.7 0.00 0.00 0.00 77 1006.3
20260830234021 27 93 3.2 12.9 0.00 0.00 0.00 76 1006.3
20260830233517 27 114 4.8 16.1 0.00 0.00 0.00 76 1006.2
20260830233022 27 93 4.8 11.3 0.00 0.00 0.00 76 1006.1
20260830232516 28 95 1.6 19.3 0.00 0.00 0.00 75 1006.2
20260830232015 28 250 4.8 19.3 0.00 0.00 0.00 75 1006.2
20260830231516 28 84 3.2 14.5 0.00 0.00 0.00 75 1006.2
20260830231018 28 87 6.4 14.5 0.00 0.00 0.00 74 1006.4
20260830230515 28 96 1.6 11.3 0.00 0.00 0.00 76 1006.5
20260830230015 28 77 0.0 11.3 0.00 0.00 0.00 75 1006.4